Regional Weather Roundup
Issued by NWS

Home | Current Version | Previous Version | Graphics & Text | Print | Product List | Glossary On
Versions: 1 2 3 4 5 6 7 8 9 10 11 12 13 14 15 16 17 18 19 20 21 22 23 24 25 26 27 28 29 30 31 32 33 34 35 36 37 38 39 40 41 42 43 44 45 46 47 48 49 50
000
ASUS45 KABQ 241001
RWRNM
NEW MEXICO REGIONAL WEATHER ROUNDUP
NATIONAL WEATHER SERVICE ALBUQUERQUE NM
300 AM MST FRI NOV 24 2017

NOTE: "FAIR" MEANS FEW OR NO CLOUDS BELOW 12,000 FEET AGL WITH NO
       SIGNIFICANT WEATHER OR OBSTRUCTIONS TO VISION.

      THIS PRODUCT IS RELEASED AS TWO VERSIONS.  ONE VERSION NEAR
      THE TOP OF THE HOUR CONTAINING PRELIMINARY DATA FROM ALBUQUERQUE
      AND OTHER STATIONS.  A FINAL VERSION WITH ADDITIONAL DATA IS
      ISSUED ABOUT 10 MINUTES AFTER THE HOUR.

NMZ501-503-504-510>518-241100-
NORTHWEST PLATEAU/NORTHCENTRAL MOUNTAINS

CITY           SKY/WX    TMP DP  RH WIND       PRES   REMARKS
FARMINGTON     FAIR      31  24  75 NE6       30.17F WCI  25
LOS ALAMOS     FAIR      46  27  48 CALM      30.18F
SANTA FE       FAIR      32  27  81 N5        30.15F WCI  27
TAOS           FAIR      26  20  77 N8        30.21S WCI  18
ANGEL FIRE     FAIR      28  22  79 SW3       30.20F

$$
NMZ402-403-502-505>509-241100-
WESTCENTRAL MOUNTAINS/SOUTHWEST MOUNTAINS

CITY           SKY/WX    TMP DP  RH WIND       PRES   REMARKS
GALLUP         FAIR      25  18  74 E3        30.21F
GRANTS         FAIR      25  18  74 NW12      30.23F WCI  14
SILVER CITY    FAIR      44  26  49 N12       30.15F

$$
NMZ407-409-411-412-241100-
SOUTHERN DESERTS

CITY           SKY/WX    TMP DP  RH WIND       PRES   REMARKS
DEMING         FAIR      39  23  52 SW6       30.11S WCI  35
LAS CRUCES     FAIR      42  23  47 CALM      30.11F
ALAMOGORDO     FAIR      45  27  49 N3        30.10S
T OR C         FAIR      44  25  47 CALM      30.11F

$$
NMZ519>523-241100-
CENTRAL VALLEYS/CENTRAL HIGHLANDS

CITY           SKY/WX    TMP DP  RH WIND       PRES   REMARKS
ALBUQUERQUE    FAIR      43  29  57 CALM      30.13F
DOUBLE EAGLE   FAIR      36  25  63 W7        30.15F WCI  31
MORIARTY ARPT  FAIR      27  21  80 NW3       30.15F
CLINES CORNERS FAIR      44  21  40 NW18      30.14F
BELEN          FAIR      38  27  64 NW6       30.14S WCI  33
SOCORRO        FAIR      38  25  60 CALM      30.13S

$$
NMZ524>526-539-540-241100-
SOUTHCENTRAL MOUNTAINS

CITY           SKY/WX    TMP DP  RH WIND       PRES   REMARKS
RUIDOSO        FAIR      52  25  35 NW7       30.17S

$$
NMZ527>531-241100-
NORTHEAST HIGHLANDS/NORTHEAST PLAINS

CITY           SKY/WX    TMP DP  RH WIND       PRES   REMARKS
LAS VEGAS      FAIR      43  16  33 S5        30.08F
RATON          FAIR      37  27  67 NE8       30.02F WCI  31
CLAYTON        FAIR      48  27  44 SW6       29.89F

$$
NMZ532>537-241100-
EASTCENTRAL PLAINS

CITY           SKY/WX    TMP DP  RH WIND       PRES   REMARKS
SANTA ROSA     FAIR      50  28  42 SW6       29.97F
TUCUMCARI      FAIR      46  31  55 W10       29.91F
CANNON AFB     FAIR      46  30  53 W13       29.97F
CLOVIS AIRPORT FAIR      45  30  55 W12       29.96F

$$
NMZ028-029-538-241100-
SOUTHEAST PLAINS

CITY           SKY/WX    TMP DP  RH WIND       PRES   REMARKS
ROSWELL        FAIR      41  28  60 CALM      29.99F
ARTESIA        FAIR      48  28  46 W8        30.00F
CARLSBAD       FAIR      38  32  79 CALM      29.99F
HOBBS          FAIR      45  30  57 W9        30.01F


$$




USA.gov is the U.S. government's official web portal to all federal, state and local government web resources and services.